Weather Roundup
Issued by NWS

Home | Current Version | Previous Version | Graphics & Text | Print | Product List | Glossary Off
Versions: 1 2 3 4 5 6 7 8 9 10 11 12 13 14 15 16 17 18 19 20 21 22 23 24 25 26 27 28 29 30 31 32 33 34 35 36 37 38 39 40 41 42 43 44 45 46 47 48 49 50

000
NZUS93 KARX 221759
HRRWXR

CURRENT HOURLY OBSERVATIONS ACROSS
MUCH OF THE UPPER MISSISSIPPI VALLEY
NATIONAL WEATHER SERVICE LA CROSSE WI
100 PM CDT TUE AUG 22 2017


...SOUTHEAST MINNESOTA...


CITY           SKY/WX    TMP DP  RH WIND       PRES   REMARKS
ROCHESTER      SUNNY     69  55  60 NW17      30.06S
ROCHESTER/MAYO FAIR      68  48  48 NW15G25   30.06R
WINONA         SUNNY     72  52  49 NW14      30.01S
AUSTIN         SUNNY     70  52  52 NW16G22   30.08S
ALBERT LEA     SUNNY     72  54  53 NW9G16    30.09S
DODGE CENTER   MOSUNNY   68  52  56 NW16      30.07S
PRESTON        MOSUNNY   68  52  56 NW13      30.06R
OWATONNA       SUNNY     70  54  56 W17G23    30.08S
FARIBAULT      SUNNY     70  52  52 W15G21    30.08S
$$

...ELSEWHERE IN MINNESOTA...


CITY           SKY/WX    TMP DP  RH WIND       PRES   REMARKS
MINNEAPOLIS    MOSUNNY   74  49  41 NW14G24   30.03F
INTNL FALLS    PTSUNNY   65  52  62 W14G24    29.92S
DULUTH         PTSUNNY   65  50  58 NW16G26   29.93F
RED WING       SUNNY     73  45  35 NW15      30.02S
REDWOOD FALLS  SUNNY     72  51  47 NW13G22   30.11F
MANKATO        SUNNY     70  53  54 W18       30.09F
WORTHINGTON    NOT AVBL
FAIRMONT       SUNNY     69  52  54 NW13G20   30.13S
$$

...SOUTHWEST WISCONSIN...


CITY           SKY/WX    TMP DP  RH WIND       PRES   REMARKS
LA CROSSE      SUNNY     77  50  38 NW17      29.99R
PRAIRIE DU CHI SUNNY     74  49  41 NW13G21   29.99F
BOSCOBEL       MOSUNNY   76  52  43 NW13      29.98S
LONE ROCK      NOT AVBL
PLATTEVILLE    PTSUNNY   72  58  59 NW12G20   29.99R
FORT MC COY    MOSUNNY   71  50  47 NW21G30   29.98S
MAUSTON-NEW LI MOCLDY    70  53  54 NW17G24   29.95S
VIROQUA        FAIR      69  51  53 NW13G21   30.00S
WIS DELLS      MOSUNNY   73  49  41 W15G23    29.94F
$$

...ELSEWHERE IN WISCONSIN...


CITY           SKY/WX    TMP DP  RH WIND       PRES   REMARKS
MILWAUKEE      PTSUNNY   78  54  43 NW21G33   29.87R
MADISON        PTSUNNY   73  52  47 NW15G25   29.93S
GREEN BAY      SUNNY     72  56  57 NW13G23   29.86S
EAU CLAIRE     NOT AVBL
BLACK RVR FLS  FAIR      73  47  39 NW14      29.97S
MEDFORD        MOSUNNY   65  49  54 NW15G25   29.95S
WAUSAU         MOSUNNY   69  48  47 NW17G24   29.91S
WIS RAPIDS     MOSUNNY   70  50  49 NW13      29.95S
MARSHFIELD     MOSUNNY   70  47  43 NW15G26   29.95S
RICE LAKE      MOSUNNY   69  52  55 W12G17    30.00F
$$

...NORTHEAST IOWA...


CITY           SKY/WX    TMP DP  RH WIND       PRES   REMARKS
WATERLOO       SUNNY     72  53  51 NW21      30.05S
DUBUQUE        MOSUNNY   72  56  57 NW18G24   30.01R
DECORAH        MOSUNNY   70  52  52 NW14G23   30.03S
MASON CITY     SUNNY     70  52  52 NW20      30.11S
CHARLES CITY   SUNNY     70  52  52 NW14G23   30.08S
OELWEIN        PTSUNNY   70  55  60 NW16G23   30.05S
$$

...ELSEWHERE IN IOWA...


CITY           SKY/WX    TMP DP  RH WIND       PRES   REMARKS
DES MOINES     MOSUNNY   75  48  38 N18       30.10S
IOWA CITY      SUNNY     77  55  46 NW14G24   30.04R
FORT DODGE     SUNNY     72  50  46 N10G21    30.12F
MARSHALLTOWN   SUNNY     72  56  57 NW16G24   30.08R
CEDAR RAPIDS   MOSUNNY   75  56  51 N16G22    30.03R
$$

...NORTHERN ILLINOIS...


CITY           SKY/WX    TMP DP  RH WIND       PRES   REMARKS
CHICAGO-OHARE  PTSUNNY   78  60  53 NW17      29.89S
CHICAGO-MIDWAY PTSUNNY   76  61  59 NW16G29   29.90R
MOLINE         MOSUNNY   77  59  53 NW16G23   29.99S
ROCKFORD       MOSUNNY   78  57  48 NW18G24   29.94S
PEORIA         MOSUNNY   75  65  70 NW15G28   29.98R
$$

NOTE: "FAIR" INDICATES FEW OR NO CLOUDS BELOW 12,000 FEET WITH NO
SIGNIFICANT WEATHER AND/OR OBSTRUCTIONS TO VISIBILITY. WIND
SPEEDS ARE IN MILES-PER-HOUR.




USA.gov is the U.S. government's official web portal to all federal, state and local government web resources and services.